WX6HNX-3 Weather Reports


Display with metric or nautical units.
time (UTC)temp
F
wind
direction
speed
MPH
gust
MPH
rain 1hr
in
rain 24hr
in
rain mn
in
humidity
%
barometer
mb
20190325160742 57 143 4.0 7.0 0.00 0.00 0.00 78 1019.5
20190325160442 57 128 2.0 7.0 0.00 0.00 0.00 78 1019.4
20190325155542 55 129 3.0 7.0 0.00 0.00 0.00 77 1019.5
20190325154942 54 122 3.0 6.0 0.00 0.00 0.00 77 1019.4
20190325154641 54 109 2.0 6.0 0.00 0.00 0.00 78 1019.5
20190325154342 53 102 3.0 7.0 0.00 0.00 0.00 78 1019.4
20190325154045 53 114 4.0 7.0 0.00 0.00 0.00 80 1019.4
20190325153743 52 116 3.0 7.0 0.00 0.00 0.00 81 1019.5
20190325153442 52 115 5.0 7.0 0.00 0.00 0.00 81 1019.5
20190325152841 50 168 3.0 5.0 0.00 0.00 0.00 82 1019.6
20190325152242 49 174 3.0 5.0 0.00 0.00 0.00 84 1019.6
20190325151801 47 221 2.0 3.0 0.00 0.00 0.00 85 1019.6
20190325151502 47 238 1.0 2.0 0.00 0.00 0.00 86 1019.5
20190325150901 45 0 0.0 4.0 0.00 0.00 0.00 88 1019.4
20190325150302 44 0 0.0 4.0 0.00 0.00 0.00 88 1019.4
20190325150001 43 0 0.0 3.0 0.00 0.00 0.00 89 1019.4
20190325145103 41 0 0.0 3.0 0.00 0.00 0.00 89 1019.2
20190325144801 41 106 1.0 3.0 0.00 0.00 0.00 89 1019.2
20190325143902 40 0 0.0 3.0 0.00 0.00 0.00 89 1019.0
20190325143301 40 0 0.0 2.0 0.00 0.00 0.00 89 1019.0
20190325143002 40 0 0.0 2.0 0.00 0.00 0.00 88 1018.9
20190325141801 39 0 0.0 3.0 0.00 0.00 0.00 88 1018.9
20190325141503 39 0 0.0 3.0 0.00 0.00 0.00 88 1018.8
20190325140902 39 49 1.0 3.0 0.00 0.00 0.00 87 1018.9
20190325140302 39 0 0.0 4.0 0.00 0.00 0.00 88 1018.7
20190325140004 39 40 2.0 4.0 0.00 0.00 0.00 87 1018.7
20190325135701 39 0 0.0 4.0 0.00 0.00 0.00 86 1018.8
20190325135401 39 33 2.0 4.0 0.00 0.00 0.00 87 1018.9
20190325135101 39 274 1.0 4.0 0.00 0.00 0.00 85 1018.9
20190325134805 40 0 0.0 3.0 0.00 0.00 0.00 85 1018.7
20190325134202 41 351 1.0 3.0 0.00 0.00 0.00 86 1018.7
20190325133902 41 0 0.0 3.0 0.00 0.00 0.00 88 1018.7
20190325133301 41 348 1.0 3.0 0.00 0.00 0.00 87 1018.7
20190325133006 41 347 2.0 3.0 0.00 0.00 0.00 87 1018.7
20190325132701 40 310 1.0 3.0 0.00 0.00 0.00 87 1018.7
20190325132402 40 309 1.0 3.0 0.00 0.00 0.00 86 1018.8
20190325132101 40 309 1.0 3.0 0.00 0.00 0.00 86 1018.8
20190325131505 40 309 1.0 3.0 0.00 0.00 0.00 85 1018.7
20190325130826 41 310 2.0 3.0 0.00 0.00 0.00 84 1018.7
20190325125927 42 336 1.0 4.0 0.00 0.00 0.00 86 1018.7
20190325124426 42 338 3.0 4.0 0.00 0.00 0.00 86 1018.7
20190325123827 41 338 3.0 4.0 0.00 0.00 0.00 87 1018.5
20190325123415 41 329 3.0 5.0 0.00 0.00 0.00 86 1018.6
20190325123119 41 315 3.0 4.0 0.00 0.00 0.00 86 1018.6
20190325122815 40 316 3.0 4.0 0.00 0.00 0.00 85 1018.5
20190325122516 40 309 3.0 4.0 0.00 0.00 0.00 84 1018.5
20190325122217 40 301 2.0 4.0 0.00 0.00 0.00 84 1018.8
20190325121915 41 295 3.0 6.0 0.00 0.00 0.00 84 1018.7
20190325121620 41 297 2.0 6.0 0.00 0.00 0.00 84 1018.5
20190325121317 41 288 2.0 6.0 0.00 0.00 0.00 83 1018.5
20190325120716 41 293 2.0 4.0 0.00 0.00 0.00 82 1018.5
20190325120416 41 286 3.0 4.0 0.00 0.00 0.00 82 1018.5
20190325120121 42 295 2.0 4.0 0.00 0.00 0.00 83 1018.5
20190325115815 42 300 3.0 5.0 0.00 0.00 0.00 83 1018.5
20190325115516 42 297 2.0 6.0 0.00 0.00 0.00 83 1018.5
20190325115217 41 295 3.0 6.0 0.00 0.00 0.00 82 1018.5
20190325114915 42 287 3.0 6.0 0.00 0.00 0.00 80 1018.5
20190325114620 42 284 4.0 6.0 0.00 0.00 0.00 78 1018.8
20190325114317 42 284 3.0 4.0 0.00 0.00 0.00 77 1018.5
20190325114016 43 298 2.0 4.0 0.00 0.00 0.00 76 1018.6
20190325113416 45 0 0.0 4.0 0.00 0.00 0.00 76 1018.6
20190325113118 46 334 1.0 5.0 0.00 0.00 0.00 77 1018.7
20190325112817 46 339 3.0 5.0 0.00 0.00 0.00 77 1018.6
20190325112516 46 351 3.0 5.0 0.00 0.00 0.00 77 1018.7
20190325111917 46 356 4.0 5.0 0.00 0.00 0.00 77 1018.8
20190325111616 46 9 4.0 5.0 0.00 0.00 0.00 77 1018.8
20190325111316 46 14 3.0 5.0 0.00 0.00 0.00 77 1018.8
20190325110716 46 27 3.0 5.0 0.00 0.00 0.00 78 1018.9
20190325110116 45 27 4.0 5.0 0.00 0.00 0.00 81 1018.8
20190325105817 44 28 3.0 5.0 0.00 0.00 0.00 82 1018.8
20190325105516 44 28 3.0 5.0 0.00 0.00 0.00 82 1018.8
20190325105217 43 17 3.0 5.0 0.00 0.00 0.00 83 1018.9
20190325104916 42 4 4.0 5.0 0.00 0.00 0.00 84 1018.9
20190325104017 41 347 3.0 5.0 0.00 0.00 0.00 84 1018.9
20190325103716 41 323 3.0 6.0 0.00 0.00 0.00 83 1019.0
20190325103416 41 302 3.0 6.0 0.00 0.00 0.00 82 1019.2
20190325103115 41 291 2.0 6.0 0.00 0.00 0.00 81 1019.1
20190325102815 42 281 2.0 4.0 0.00 0.00 0.00 80 1019.0
20190325102216 43 277 2.0 4.0 0.00 0.00 0.00 79 1019.1
20190325101916 43 269 2.0 4.0 0.00 0.00 0.00 80 1019.1
20190325101615 44 273 3.0 4.0 0.00 0.00 0.00 81 1019.1
20190325101315 44 346 1.0 4.0 0.00 0.00 0.00 81 1019.1
20190325101020 44 344 3.0 5.0 0.00 0.00 0.00 81 1019.0
20190325100716 44 337 3.0 6.0 0.00 0.00 0.00 82 1019.1
20190325100416 44 339 3.0 6.0 0.00 0.00 0.00 83 1019.1
20190325100116 43 343 4.0 6.0 0.00 0.00 0.00 84 1019.2
20190325095816 43 343 3.0 6.0 0.00 0.00 0.00 84 1019.2
20190325095216 42 339 3.0 5.0 0.00 0.00 0.00 85 1019.5
20190325094916 42 320 3.0 5.0 0.00 0.00 0.00 84 1019.5
20190325094616 42 303 2.0 4.0 0.00 0.00 0.00 84 1019.4
20190325094315 42 311 2.0 4.0 0.00 0.00 0.00 83 1019.4
20190325094018 42 300 2.0 5.0 0.00 0.00 0.00 83 1019.4
20190325093118 42 13 3.0 4.0 0.00 0.00 0.00 83 1019.5
20190325092816 43 19 2.0 4.0 0.00 0.00 0.00 83 1019.6
20190325092518 43 20 2.0 4.0 0.00 0.00 0.00 84 1019.6
20190325092216 42 20 1.0 2.0 0.00 0.00 0.00 83 1019.6
20190325091916 42 20 1.0 2.0 0.00 0.00 0.00 83 1019.6
20190325091317 43 20 1.0 2.0 0.00 0.00 0.00 81 1019.6
20190325090716 43 20 1.0 3.0 0.00 0.00 0.00 80 1019.8
20190325090416 43 20 1.0 3.0 0.00 0.00 0.00 80 1019.7
20190325085816 45 20 2.0 2.0 0.00 0.00 0.00 78 1019.7
20190325085518 45 20 2.0 2.0 0.00 0.00 0.00 78 1019.7
20190325085217 45 20 1.0 2.0 0.00 0.00 0.00 78 1019.8
20190325084916 45 0 0.0 1.0 0.00 0.00 0.00 78 1019.8
20190325084315 46 0 0.0 3.0 0.00 0.00 0.00 78 1019.7
20190325084018 46 0 0.0 3.0 0.00 0.00 0.00 78 1019.7
20190325083718 46 0 0.0 4.0 0.00 0.00 0.00 78 1019.7
20190325083416 46 20 1.0 4.0 0.00 0.00 0.00 79 1019.8
20190325083116 46 20 2.0 4.0 0.00 0.00 0.00 80 1019.8
20190325082816 45 20 3.0 4.0 0.00 0.00 0.00 80 1019.8
20190325082216 45 340 2.0 3.0 0.00 0.00 0.00 80 1019.8
20190325081916 45 336 2.0 3.0 0.00 0.00 0.00 79 1019.8
20190325081618 45 336 2.0 3.0 0.00 0.00 0.00 80 1019.8
20190325081316 45 336 1.0 3.0 0.00 0.00 0.00 79 1019.8
20190325081015 45 336 1.0 3.0 0.00 0.00 0.00 78 1019.8
20190325080716 45 0 0.0 3.0 0.00 0.00 0.00 78 1019.8
20190325080416 45 336 1.0 3.0 0.00 0.00 0.00 78 1019.8
20190325080116 45 0 0.0 3.0 0.00 0.00 0.00 79 1019.8
20190325075516 45 328 1.0 4.0 0.00 0.00 0.00 80 1019.8
20190325075215 44 325 2.0 4.0 0.00 0.00 0.00 81 1019.8
20190325074916 44 321 1.0 4.0 0.00 0.00 0.00 81 1019.8
20190325074316 44 355 2.0 4.0 0.00 0.00 0.00 80 1019.9
20190325074016 44 355 1.0 3.0 0.00 0.00 0.00 79 1019.9
20190325073716 45 355 1.0 2.0 0.00 0.00 0.00 79 1020.0
20190325072816 46 0 0.0 2.0 0.00 0.00 0.00 78 1020.0
20190325072516 46 0 0.0 2.0 0.00 0.00 0.00 78 1020.0
20190325072215 46 0 0.0 3.0 0.00 0.00 0.00 78 1020.0
20190325071916 46 0 0.0 3.0 0.00 0.00 0.00 78 1020.1
20190325071316 46 254 1.0 2.0 0.00 0.00 0.00 79 1020.1
20190325071015 45 0 0.0 2.0 0.00 0.00 0.00 78 1020.1
20190325070715 45 254 1.0 5.0 0.00 0.00 0.00 78 1020.2
20190325070420 45 0 0.0 5.0 0.00 0.00 0.00 77 1020.1
20190325065816 46 305 2.0 5.0 0.00 0.00 0.00 77 1020.3
20190325065516 46 322 2.0 6.0 0.00 0.00 0.00 77 1020.2
20190325065216 46 311 2.0 6.0 0.00 0.00 0.00 74 1020.2
20190325064917 47 279 3.0 6.0 0.00 0.00 0.00 73 1020.3
20190325064616 48 345 3.0 6.0 0.00 0.00 0.00 73 1020.3
20190325064316 48 29 3.0 4.0 0.00 0.00 0.00 73 1020.3
20190325062516 48 355 2.0 4.0 0.00 0.00 0.00 73 1020.4
20190325062215 48 355 2.0 4.0 0.00 0.00 0.00 73 1020.4
20190325061917 48 355 3.0 4.0 0.00 0.00 0.00 74 1020.4
20190325061616 48 351 3.0 4.0 0.00 0.00 0.00 74 1020.5
20190325061316 48 347 3.0 4.0 0.00 0.00 0.00 75 1020.5
20190325061015 48 345 3.0 4.0 0.00 0.00 0.00 75 1020.5
20190325060716 48 1 3.0 4.0 0.00 0.00 0.00 75 1020.4
20190325060417 48 4 2.0 4.0 0.00 0.00 0.00 75 1020.5
20190325060116 48 4 1.0 4.0 0.00 0.00 0.00 74 1020.5
20190325055816 48 4 1.0 4.0 0.00 0.00 0.00 73 1020.5
20190325055516 49 4 2.0 4.0 0.00 0.00 0.00 73 1020.5
20190325055217 49 4 1.0 4.0 0.00 0.00 0.00 73 1020.5
20190325054915 49 4 1.0 5.0 0.00 0.00 0.00 73 1020.5
20190325054616 49 353 3.0 6.0 0.00 0.00 0.00 73 1020.5
20190325054316 49 350 3.0 6.0 0.00 0.00 0.00 73 1020.5
20190325054016 49 342 4.0 6.0 0.00 0.00 0.00 73 1020.6
20190325053715 49 355 3.0 5.0 0.00 0.00 0.00 74 1020.6
20190325053333 49 358 3.0 5.0 0.00 0.00 0.00 74 1020.6
20190325053034 49 351 3.0 5.0 0.00 0.00 0.00 74 1020.7
20190325052434 49 1 3.0 4.0 0.00 0.00 0.00 74 1020.8
20190325052133 49 4 2.0 3.0 0.00 0.00 0.00 74 1020.8
20190325051833 49 4 2.0 3.0 0.00 0.00 0.00 74 1020.7
20190325051534 49 4 2.0 3.0 0.00 0.00 0.00 74 1020.7
20190325050633 49 4 1.0 2.0 0.00 0.00 0.00 76 1020.7
20190325050334 49 4 1.0 2.0 0.00 0.00 0.00 76 1020.7
20190325050033 49 4 1.0 3.0 0.00 0.00 0.00 76 1020.7
20190325045133 49 4 1.0 3.0 0.00 0.00 0.00 77 1020.6
20190325044834 49 4 1.0 3.0 0.00 0.00 0.00 77 1020.6
20190325044534 49 4 1.0 3.0 0.00 0.00 0.00 77 1020.6
20190325044235 49 4 1.0 3.0 0.00 0.00 0.00 77 1020.6
20190325043933 49 4 1.0 3.0 0.00 0.00 0.00 76 1020.6
20190325043633 49 4 1.0 3.0 0.00 0.00 0.00 76 1020.7
20190325043332 49 4 1.0 3.0 0.00 0.00 0.00 75 1020.7
20190325043032 49 4 1.0 3.0 0.00 0.00 0.00 75 1020.7
20190325042733 49 4 1.0 3.0 0.00 0.00 0.00 73 1020.8
20190325042433 49 4 2.0 3.0 0.00 0.00 0.00 73 1020.8
20190325042133 50 4 2.0 3.0 0.00 0.00 0.00 73 1020.8
20190325041832 50 4 1.0 2.0 0.00 0.00 0.00 73 1020.7
20190325041532 50 4 1.0 2.0 0.00 0.00 0.00 73 1020.7
20190325041234 50 0 0.0 2.0 0.00 0.00 0.00 72 1020.7
20190325040934 50 0 0.0 2.0 0.00 0.00 0.00 72 1020.7
20190325040333 51 0 0.0 2.0 0.00 0.00 0.00 71 1020.7
20190325040032 51 0 0.0 2.0 0.00 0.00 0.00 71 1020.7
20190325035733 51 4 1.0 2.0 0.00 0.00 0.00 70 1020.6
20190325035433 52 4 1.0 2.0 0.00 0.00 0.00 69 1020.6
20190325034843 53 0 0.0 3.0 0.00 0.00 0.00 67 1020.6
20190325034543 53 0 0.0 3.0 0.00 0.00 0.00 65 1020.6
20190325034243 53 6 1.0 3.0 0.00 0.00 0.00 66 1020.7
20190325033341 53 0 0.0 2.0 0.00 0.00 0.00 66 1020.6
20190325032443 53 0 0.0 2.0 0.00 0.00 0.00 69 1020.6
20190325032142 53 0 0.0 2.0 0.00 0.00 0.00 69 1020.6
20190325031842 53 0 0.0 2.0 0.00 0.00 0.00 69 1020.6
20190325031542 53 231 1.0 2.0 0.00 0.00 0.00 69 1020.5
20190325031243 53 0 0.0 2.0 0.00 0.00 0.00 69 1020.5
20190325030942 53 0 0.0 3.0 0.00 0.00 0.00 69 1020.5
20190325030642 54 231 1.0 3.0 0.00 0.00 0.00 69 1020.6
20190325030342 54 0 0.0 3.0 0.00 0.00 0.00 69 1020.5
20190325030041 54 226 2.0 3.0 0.00 0.00 0.00 68 1020.6
20190325025744 54 209 1.0 3.0 0.00 0.00 0.00 67 1020.5
20190325025444 55 209 1.0 3.0 0.00 0.00 0.00 67 1020.6
20190325025143 55 209 1.0 2.0 0.00 0.00 0.00 67 1020.5
20190325024541 56 209 1.0 3.0 0.00 0.00 0.00 66 1020.5
20190325024243 57 0 0.0 3.0 0.00 0.00 0.00 63 1020.5
20190325023942 58 0 0.0 3.0 0.00 0.00 0.00 62 1020.5
20190325023642 58 209 2.0 3.0 0.00 0.00 0.00 60 1020.5
20190325023343 59 208 1.0 3.0 0.00 0.00 0.00 59 1020.5
20190325023043 60 209 1.0 3.0 0.00 0.00 0.00 56 1020.6
20190325022744 61 183 1.0 3.0 0.00 0.00 0.00 50 1020.6
20190325022442 61 0 0.0 2.0 0.00 0.00 0.00 45 1020.6
20190325022142 62 173 1.0 2.0 0.00 0.00 0.00 43 1020.6
20190325021842 62 173 1.0 2.0 0.00 0.00 0.00 43 1020.6
20190325021543 62 173 1.0 2.0 0.00 0.00 0.00 43 1020.5
20190325020942 62 173 1.0 2.0 0.00 0.00 0.00 42 1020.5
20190325020642 63 173 1.0 2.0 0.00 0.00 0.00 42 1020.5
20190325020343 63 173 1.0 2.0 0.00 0.00 0.00 42 1020.5
20190325015742 64 173 1.0 3.0 0.00 0.00 0.00 43 1020.6
20190325015442 64 173 1.0 3.0 0.00 0.00 0.00 44 1020.6
20190325015142 65 173 1.0 3.0 0.00 0.00 0.00 47 1020.6
20190325014842 65 173 2.0 3.0 0.00 0.00 0.00 48 1020.6
20190325014243 66 181 2.0 3.0 0.00 0.00 0.00 44 1020.6
20190325013642 66 187 1.0 2.0 0.00 0.00 0.00 45 1020.6
20190325013343 66 187 1.0 2.0 0.00 0.00 0.00 46 1020.7
20190325013042 66 187 1.0 2.0 0.00 0.00 0.00 50 1020.7
20190325012500 66 0 0.0 2.0 0.00 0.00 0.00 45 1020.8
20190325012200 66 187 1.0 2.0 0.00 0.00 0.00 44 1020.8
20190325011900 66 0 0.0 3.0 0.00 0.00 0.00 43 1020.8
20190325011259 66 187 1.0 3.0 0.00 0.00 0.00 41 1020.9
20190325010700 67 0 0.0 2.0 0.00 0.00 0.00 42 1020.8
20190325010400 67 187 1.0 3.0 0.00 0.00 0.00 43 1020.9
20190325010059 67 0 0.0 3.0 0.00 0.00 0.00 39 1021.0
20190325005759 67 187 1.0 4.0 0.00 0.00 0.00 39 1021.0
20190325005500 67 187 1.0 4.0 0.00 0.00 0.00 40 1020.9
20190325004900 67 187 1.0 4.0 0.00 0.00 0.00 41 1021.1
20190325004300 67 0 0.0 3.0 0.00 0.00 0.00 40 1021.0
20190325003959 67 179 1.0 4.0 0.00 0.00 0.00 41 1021.0
20190325003700 67 179 1.0 4.0 0.00 0.00 0.00 40 1021.0
20190325003400 67 179 2.0 4.0 0.00 0.00 0.00 41 1021.0
20190325003100 67 180 2.0 4.0 0.00 0.00 0.00 43 1021.0
20190325002759 67 0 0.0 4.0 0.00 0.00 0.00 42 1021.0
20190325002503 67 181 3.0 4.0 0.00 0.00 0.00 41 1021.0
20190325002200 67 177 1.0 6.0 0.00 0.00 0.00 44 1021.0
20190325001900 67 181 3.0 6.0 0.00 0.00 0.00 46 1021.0
20190325001559 67 182 3.0 6.0 0.00 0.00 0.00 43 1021.0
20190325001259 67 159 1.0 6.0 0.00 0.00 0.00 44 1021.0
20190325000959 67 170 1.0 6.0 0.00 0.00 0.00 43 1021.0
20190325000631 67 239 4.0 6.0 0.00 0.00 0.00 43 1021.0
20190325000331 67 0 0.0 3.0 0.00 0.00 0.00 43 1021.0
20190325000031 67 179 1.0 3.0 0.00 0.00 0.00 42 1021.1
20190324235626 68 179 2.0 5.0 0.00 0.00 0.00 45 1021.1
20190324235327 68 151 2.0 5.0 0.00 0.00 0.00 44 1021.2
20190324235025 67 173 1.0 3.0 0.00 0.00 0.00 45 1021.1
20190324234725 67 173 1.0 3.0 0.00 0.00 0.00 44 1021.1
20190324234428 67 177 1.0 6.0 0.00 0.00 0.00 43 1021.1
20190324234127 67 226 1.0 6.0 0.00 0.00 0.00 45 1021.2
20190324233826 67 263 1.0 6.0 0.00 0.00 0.00 42 1021.2
20190324233527 67 198 1.0 5.0 0.00 0.00 0.00 43 1021.3
20190324232930 67 161 2.0 5.0 0.00 0.00 0.00 43 1021.3
20190324232626 67 160 3.0 5.0 0.00 0.00 0.00 44 1021.3
20190324232038 67 199 1.0 5.0 0.00 0.00 0.00 43 1021.3
20190324231437 67 167 3.0 5.0 0.00 0.00 0.00 44 1021.4
20190324230837 67 152 2.0 7.0 0.00 0.00 0.00 43 1021.4
20190324230536 67 151 3.0 7.0 0.00 0.00 0.00 44 1021.4
20190324230237 67 144 3.0 7.0 0.00 0.00 0.00 46 1021.4
20190324225936 67 145 1.0 4.0 0.00 0.00 0.00 45 1021.4
20190324225637 67 145 2.0 6.0 0.00 0.00 0.00 46 1021.4
20190324225336 66 145 2.0 6.0 0.00 0.00 0.00 45 1021.4
20190324225039 66 146 2.0 6.0 0.00 0.00 0.00 46 1021.5
20190324224737 66 167 3.0 6.0 0.00 0.00 0.00 46 1021.5
20190324224439 66 226 2.0 5.0 0.00 0.00 0.00 46 1021.5
20190324223942 66 235 2.0 5.0 0.00 0.00 0.00 44 1021.5
20190324223642 66 164 2.0 8.0 0.00 0.00 0.00 46 1021.5
20190324223040 66 102 2.0 8.0 0.00 0.00 0.00 45 1021.6
20190324222740 66 100 4.0 8.0 0.00 0.00 0.00 47 1021.6
20190324222439 66 138 2.0 6.0 0.00 0.00 0.00 50 1021.6
20190324222140 66 204 1.0 3.0 0.00 0.00 0.00 49 1021.6
20190324221540 64 0 0.0 5.0 0.00 0.00 0.00 49 1021.6
20190324221240 64 0 0.0 5.0 0.00 0.00 0.00 48 1021.6
20190324220940 64 0 0.0 5.0 0.00 0.00 0.00 49 1021.6
20190324220640 64 171 3.0 5.0 0.00 0.00 0.00 53 1021.6
20190324220040 64 199 3.0 5.0 0.00 0.00 0.00 54 1021.7
20190324215439 63 203 1.0 5.0 0.00 0.00 0.00 52 1021.6
20190324214538 64 212 3.0 7.0 0.00 0.00 0.00 54 1021.7
20190324213938 64 192 4.0 7.0 0.00 0.00 0.00 54 1021.8
20190324213639 64 0 0.0 7.0 0.00 0.00 0.00 52 1021.8
20190324213338 64 191 4.0 7.0 0.00 0.00 0.00 53 1021.8
20190324213040 65 192 3.0 7.0 0.00 0.00 0.00 52 1021.9
20190324212209 65 146 6.0 9.0 0.00 0.00 0.00 57 1022.0
20190324211909 64 151 1.0 8.0 0.00 0.00 0.00 55 1022.1
20190324211609 64 183 4.0 8.0 0.00 0.00 0.00 58 1022.1
20190324211312 64 139 1.0 10.0 0.00 0.00 0.00 53 1022.2
20190324211010 64 102 1.0 11.0 0.00 0.00 0.00 54 1022.2
20190324210710 65 93 4.0 11.0 0.00 0.00 0.00 53 1022.2
20190324210409 65 140 7.0 11.0 0.00 0.00 0.00 57 1022.2
20190324210109 64 136 6.0 10.0 0.00 0.00 0.00 61 1022.2
20190324205812 64 160 3.0 8.0 0.00 0.00 0.00 59 1022.3
20190324205512 64 192 4.0 6.0 0.00 0.00 0.00 60 1022.4
20190324205209 63 269 3.0 5.0 0.00 0.00 0.00 62 1022.4
20190324204700 63 233 3.0 8.0 0.00 0.00 0.00 60 1022.4
20190324204359 63 248 4.0 8.0 0.00 0.00 0.00 58 1022.4
20190324204100 63 263 3.0 8.0 0.00 0.00 0.00 60 1022.4
20190324203800 63 260 5.0 8.0 0.00 0.00 0.00 58 1022.4
20190324203459 63 139 1.0 4.0 0.00 0.00 0.00 58 1022.5
20190324203159 63 156 2.0 7.0 0.00 0.00 0.00 57 1022.5
20190324202559 63 236 2.0 10.0 0.00 0.00 0.00 63 1022.6
20190324202304 63 213 4.0 10.0 0.00 0.00 0.00 59 1022.6
20190324201959 62 198 3.0 6.0 0.00 0.00 0.00 62 1022.7
20190324201659 62 273 2.0 4.0 0.00 0.00 0.00 58 1022.8
20190324201358 62 330 2.0 5.0 0.00 0.00 0.00 61 1022.8
20190324201059 62 0 0.0 5.0 0.00 0.00 0.00 57 1022.8
20190324200758 62 204 2.0 5.0 0.00 0.00 0.00 58 1022.9
20190324200502 62 318 1.0 6.0 0.00 0.00 0.00 58 1022.9
20190324200159 62 25 2.0 8.0 0.00 0.00 0.00 57 1023.0
20190324195858 62 191 2.0 8.0 0.00 0.00 0.00 57 1022.9
20190324195559 62 169 4.0 8.0 0.00 0.00 0.00 59 1023.0
20190324195258 62 189 4.0 7.0 0.00 0.00 0.00 59 1023.0
20190324194959 62 191 2.0 7.0 0.00 0.00 0.00 59 1023.1
20190324194658 62 0 0.0 7.0 0.00 0.00 0.00 56 1023.1
20190324194358 62 172 3.0 7.0 0.00 0.00 0.00 57 1023.1
20190324194101 62 203 4.0 7.0 0.00 0.00 0.00 56 1023.2
20190324193759 62 172 4.0 7.0 0.00 0.00 0.00 61 1023.2
20190324193501 61 0 0.0 6.0 0.00 0.00 0.00 58 1023.3
20190324193159 61 0 0.0 7.0 0.00 0.00 0.00 57 1023.3
20190324192904 61 201 1.0 7.0 0.00 0.00 0.00 56 1023.3
20190324192559 62 178 3.0 8.0 0.00 0.00 0.00 62 1023.3
20190324192301 62 170 5.0 8.0 0.00 0.00 0.00 61 1023.4
20190324191959 61 151 4.0 8.0 0.00 0.00 0.00 61 1023.4
20190324191405 61 174 4.0 9.0 0.00 0.00 0.00 62 1023.3
20190324191059 61 188 5.0 9.0 0.00 0.00 0.00 64 1023.3
20190324190759 61 217 4.0 8.0 0.00 0.00 0.00 59 1023.3
20190324190504 61 178 2.0 8.0 0.00 0.00 0.00 60 1023.3
20190324190158 61 128 2.0 8.0 0.00 0.00 0.00 59 1023.4
20190324185903 61 156 3.0 8.0 0.00 0.00 0.00 62 1023.5
20190324185600 61 176 4.0 7.0 0.00 0.00 0.00 64 1023.5
20190324185300 61 173 1.0 5.0 0.00 0.00 0.00 59 1023.5
20190324185001 61 172 1.0 5.0 0.00 0.00 0.00 57 1023.6
20190324184701 61 177 2.0 5.0 0.00 0.00 0.00 59 1023.7
20190324184402 61 164 2.0 5.0 0.00 0.00 0.00 58 1023.7
20190324184103 61 149 2.0 6.0 0.00 0.00 0.00 60 1023.7
20190324183759 60 152 2.0 6.0 0.00 0.00 0.00 60 1023.7
20190324183501 60 154 1.0 6.0 0.00 0.00 0.00 64 1023.7
20190324183159 60 161 4.0 6.0 0.00 0.00 0.00 66 1023.7
20190324182559 59 152 3.0 6.0 0.00 0.01 0.00 66 1023.6
20190324182300 59 181 2.0 5.0 0.00 0.01 0.00 64 1023.6
20190324181959 59 0 0.0 3.0 0.00 0.01 0.00 64 1023.6
20190324181402 59 150 1.0 6.0 0.00 0.03 0.00 64 1023.7
20190324181103 59 139 2.0 6.0 0.00 0.05 0.00 67 1023.7
20190324180759 59 147 3.0 6.0 0.00 0.05 0.00 68 1023.6
20190324180502 58 0 0.0 5.0 0.00 0.07 0.00 68 1023.6
20190324180159 58 132 2.0 5.0 0.00 0.08 0.00 69 1023.7
20190324175859 58 0 0.0 2.0 0.00 0.08 0.00 70 1023.7
20190324175434 58 84 1.0 7.0 0.00 0.09 0.00 69 1023.7
20190324175134 58 19 1.0 7.0 0.00 0.10 0.00 69 1023.7
20190324174835 58 19 1.0 7.0 0.00 0.10 0.00 69 1023.7
20190324174534 58 153 3.0 7.0 0.00 0.11 0.00 71 1023.6
20190324174234 58 0 0.0 5.0 0.00 0.11 0.00 70 1023.7
20190324173934 58 0 0.0 5.0 0.00 0.11 0.00 70 1023.6
20190324173635 58 135 2.0 5.0 0.00 0.11 0.00 70 1023.7
20190324173334 58 132 2.0 5.0 0.00 0.11 0.00 70 1023.7
20190324172736 57 129 2.0 4.0 0.00 0.11 0.00 72 1023.8
20190324172438 57 0 0.0 6.0 0.00 0.12 0.00 71 1023.7
20190324172134 57 111 2.0 6.0 0.00 0.12 0.00 72 1023.7
20190324171836 56 114 2.0 6.0 0.00 0.12 0.00 71 1023.7
20190324171538 56 146 1.0 5.0 0.00 0.12 0.00 71 1023.8
20190324170934 56 148 3.0 5.0 0.00 0.13 0.00 73 1023.9
20190324170349 56 154 2.0 5.0 0.00 0.15 0.00 75 1024.0
20190324170055 56 147 2.0 7.0 0.00 0.16 0.00 75 1023.9
20190324165751 56 143 3.0 7.0 0.00 0.16 0.00 76 1024.0
20190324165452 55 133 4.0 7.0 0.00 0.17 0.00 77 1023.9
20190324165149 55 139 4.0 6.0 0.00 0.17 0.00 78 1023.8
20190324164849 55 148 4.0 6.0 0.00 0.18 0.00 78 1023.8
20190324164253 55 144 4.0 5.0 0.00 0.18 0.00 80 1023.8
20190324163649 54 139 2.0 5.0 0.00 0.18 0.00 82 1023.7
20190324162753 54 155 3.0 5.0 0.00 0.20 0.00 83 1023.7
20190324162449 53 158 3.0 5.0 0.00 0.21 0.00 83 1023.6
20190324162150 53 160 4.0 5.0 0.00 0.21 0.00 83 1023.5
20190324161849 53 179 1.0 4.0 0.00 0.21 0.00 83 1023.5
20190324161552 52 196 2.0 4.0 0.00 0.21 0.00 83 1023.6
20190324161256 52 229 1.0 3.0 0.00 0.21 0.00 83 1023.5
20190324160949 52 240 1.0 2.0 0.00 0.21 0.00 83 1023.5